Henry E. Rohlsen Airport

Airport
ICAO code: 
TISX
IATA Code: 
STX
Summary
ICAO Region: 
CARSAM
Location: 
Christiansted, US Virgin Islands
Serving: 
St Croix
Elevation: 
74 ft
Coordinates: 
Aerial View: 
17° 41' 58.305" N, 64° 47' 50.893" W
Airport WX: 
Tropical Revolving Storm
Metar
Observation
TISX 031953Z 09016G25KT 10SM SCT030 31/23 A3003
Station
Christiansted, Henry E. Rohlsen Airport
Date/Time
2022-07-03 19:53:00
Wind direction
90°
Wind speed
16 kts
Lowest cloud amount
scattered clouds
Temperature
31°C
Dew point
23°C
Humidity
62%
Weather condition
n/a

Henry E. Rohlsen Airport is a public airport located 10 km southwest of Christiansted on the island of St. Croix in the United States Virgin Islands.

Climatology

Tropical monsoon climate (Köppen climate classification Am)

Runways

Designator Length Width Surface Rops
10/28 3049 46 ASP Yes/Yes
Airport map: 
Aerial View: 

SKYbrary Partners:

Safety knowledge contributed by: